Terminal Aerodrome Forecast
Issued by NWS Twin Cities, MN

Home | Current Version | Previous Version | Graphics & Text | Print | Product List | Glossary On
Versions: 1 2 3 4 5 6 7 8 9 10 11 12 13 14 15 16 17 18 19 20 21 22 23 24 25 26
875
FTUS43 KMPX 132057 AAA
TAFMSP
TAF AMD
KMSP 132057Z 1321/1424 14006KT P6SM -SN BKN040 OVC080
     FM140000 13005KT P6SM SCT040 BKN100
     FM140200 14003KT P6SM FEW100 SCT250
     FM141100 18003KT P6SM SKC
     FM141700 27004KT P6SM SCT250=

USA.gov is the U.S. government's official web portal to all federal, state and local government web resources and services.